User: anonymous   Login
Location: Unspecified
(0.0000°N, 0.0000°E)
Time: 13:18:50
(UTC+00:00)
Language:

DEIMOS 2 - Orbit

View from above orbital plane
View from above orbital plane
View from above satellite
View from above satellite

Ground track
Ground track

The orbit data is extracted from the following two-line orbital elements,

1 40013U 14033D   18294.17941951 -.00000942  00000-0 -10529-3 0  9997
2 40013  97.8508 197.0186 0001873 110.3640 249.7799 14.84623564235069
Epoch (UTC): 21 October 2018 04:18:21
Eccentricity: 0.0001873
inclination: 97.8508°
perigee height: 613 km
apogee height: 616 km
right ascension of ascending node: 197.0186°
argument of perigee: 110.3640°
revolutions per day: 14.84623564
mean anomaly at epoch: 249.7799°
orbit number at epoch: 23506

The dashed part of the orbit path shows where the satellite is in the earth's shadow,  

DLR